Location: ??????
(41.3794°N, 22.5014°E)
Time: 21:22:25
(UTC+00:00)

H-2A R/B - Pass Details

Date: 30 November 2020
Orbit: 578 x 654 km, 98.5° (Epoch: 18 January)

Event Time Altitude Azimuth Distance (km) Brightness Sun altitude
Rises 16:00:07 0° 8° (N) 2,845 5.2 -10.9°
Reaches altitude 10° 16:02:18 10° 4° (N) 1,949 4.4 -11.2°
Maximum altitude 16:06:25 54° 288° (WNW) 744 2.8 -12.0°
Drops below altitude 10° 16:10:37 10° 210° (SSW) 1,979 5.4 -12.7°
Sets 16:12:51 0° 206° (SSW) 2,894 6.2 -13.1°
